This is the latest recevied weather packets stored in our database for station/object CA3DPI. If no packets are shown the sender has not sent any weather packets the latest 10 day(s).
| Time | Temp. | Humidity | Pressure | Rain* | Wind** | Luminosity | Snow |
|---|---|---|---|---|---|---|---|
| 1777553714 | 18.33° C | 42% | 1014.8 hPa | - | - | - | - |
| 1777553114 | 17.78° C | 40% | 1014.6 hPa | - | - | - | - |
| 1777552514 | 17.78° C | 44% | 1015 hPa | - | - | - | - |
| 1777551914 | 16.67° C | 44% | 1014.8 hPa | - | - | - | - |
| 1777551313 | 15.56° C | 46% | 1014.8 hPa | - | - | - | - |
| 1777550713 | 15° C | 47% | 1014.8 hPa | - | - | - | - |
| 1777550113 | 14.44° C | 48% | 1014.7 hPa | - | - | - | - |
| 1777549513 | 13.33° C | 48% | 1014.8 hPa | - | - | - | - |
| 1777548913 | 12.78° C | 49% | 1014.8 hPa | - | - | - | - |
| 1777548313 | 12.78° C | 49% | 1014.7 hPa | - | - | - | - |
| 1777547713 | 12.78° C | 50% | 1014.6 hPa | - | - | - | - |
| 1777547112 | 12.78° C | 50% | 1014.6 hPa | - | - | - | - |
| 1777546512 | 13.33° C | 50% | 1014.5 hPa | - | - | - | - |
| 1777546124 | 13.89° C | 47% | 1014.5 hPa | - | - | - | - |
| 1777545918 | 13.89° C | 47% | 1014.5 hPa | - | - | - | - |
| 1777545410 | 13.89° C | 49% | 1014.6 hPa | - | - | - | - |
| 1777545318 | 13.89° C | 49% | 1014.6 hPa | - | - | - | - |
| 1777544718 | 13.89° C | 50% | 1014.5 hPa | - | - | - | - |
| 1777544117 | 13.89° C | 50% | 1014.6 hPa | - | - | - | - |
| 1777543517 | 13.89° C | 49% | 1014.5 hPa | - | - | - | - |
| 1777542917 | 13.89° C | 50% | 1014.6 hPa | - | - | - | - |
| 1777542317 | 13.89° C | 50% | 1014.5 hPa | - | - | - | - |
| 1777541717 | 13.89° C | 49% | 1014.7 hPa | - | - | - | - |
| 1777541117 | 13.89° C | 50% | 1014.7 hPa | - | - | - | - |
| 1777540517 | 13.89° C | 49% | 1014.6 hPa | - | - | - | - |
* Rain since midnight (hover to see other rain measurements)
** Current wind speed in m/s (hover to see current wind gust speed)